When you browse on this site, cookies collect data to enhance your experience and personalize the content and advertising you see.
Visit our Privacy Policy to learn more. By continuing to use the site, you agree to this use of cookies and data.
  • In Romania
  • List of Countries
  • For 7 days
  • Water Temperature
  • Satellite Maps
  • Weather Map
  • Weather Widgets
  • user-avatar
    Login

    Hourly Weather Sokolihino

    Today, 17 July, Wednesday

    Time Temperature Precipitation Wind Pressure Humidity
    00:00 +10°C° 0 mm 1 mps 735 mmHg 93%
    01:00 +10°C° 0 mm 1 mps 735 mmHg 94%
    02:00 +10°C° 0 mm 1 mps 735 mmHg 96%
    03:00 +10°C° 0 mm 1 mps 735 mmHg 94%
    04:00 +11°C° 0 mm 1 mps 735 mmHg 93%
    05:00 +11°C° 0 mm 1 mps 735 mmHg 92%
    06:00 +13°C° 0 mm 1 mps 735 mmHg 85%
    07:00 +15°C° 0 mm 1 mps 735 mmHg 78%
    08:00 +18°C° 0 mm 1 mps 735 mmHg 71%
    09:00 +19°C° 0 mm 1 mps 735 mmHg 66%
    10:00 +21°C° 0 mm 1 mps 735 mmHg 61%
    11:00 +22°C° 0 mm 1 mps 735 mmHg 55%
    12:00 +22°C° 0.2 mm 1 mps 735 mmHg 57%
    13:00 +22°C° 0.2 mm 1 mps 734 mmHg 60%
    14:00 +22°C° 0.2 mm 1 mps 734 mmHg 62%
    15:00 +21°C° 0.8 mm 1 mps 734 mmHg 69%
    16:00 +20°C° 0.8 mm 1 mps 734 mmHg 77%
    17:00 +18°C° 0.8 mm 0 mps 734 mmHg 85%
    18:00 +19°C° 0.4 mm 1 mps 734 mmHg 86%
    19:00 +16°C° 0.4 mm 1 mps 734 mmHg 88%
    20:00 +15°C° 0.4 mm 1 mps 733 mmHg 90%
    21:00 +15°C° 0.1 mm 1 mps 733 mmHg 91%
    22:00 +14°C° 0.1 mm 1 mps 733 mmHg 93%
    23:00 +14°C° 0.1 mm 1 mps 733 mmHg 95%

    Tomorrow, 18 July, Thursday

    Time Temperature Precipitation Wind Pressure Humidity
    00:00 +14°C° 0.4 mm 1 mps 733 mmHg 96%
    01:00 +14°C° 0.4 mm 1 mps 733 mmHg 97%
    02:00 +14°C° 0.4 mm 1 mps 733 mmHg 98%
    03:00 +14°C° 1.4 mm 1 mps 733 mmHg 98%
    04:00 +14°C° 1.4 mm 1 mps 733 mmHg 98%
    05:00 +14°C° 1.4 mm 1 mps 733 mmHg 99%
    06:00 +14°C° 3.2 mm 1 mps 732 mmHg 99%
    07:00 +14°C° 3.2 mm 1 mps 732 mmHg 99%
    08:00 +14°C° 3.2 mm 1 mps 732 mmHg 98%
    09:00 +14°C° 1.6 mm 1 mps 732 mmHg 98%
    10:00 +15°C° 1.6 mm 1 mps 732 mmHg 98%
    11:00 +15°C° 1.6 mm 1 mps 732 mmHg 98%
    12:00 +15°C° 0.5 mm 1 mps 732 mmHg 96%
    13:00 +16°C° 0.5 mm 2 mps 732 mmHg 94%
    14:00 +17°C° 0.5 mm 2 mps 732 mmHg 92%
    15:00 +17°C° 1 mm 3 mps 732 mmHg 93%
    16:00 +16°C° 1 mm 3 mps 732 mmHg 94%
    17:00 +15°C° 1 mm 4 mps 732 mmHg 95%
    18:00 +15°C° 0.2 mm 4 mps 732 mmHg 96%
    19:00 +14°C° 0.2 mm 3 mps 732 mmHg 96%
    20:00 +14°C° 0.2 mm 3 mps 732 mmHg 97%
    21:00 +14°C° 0.1 mm 3 mps 732 mmHg 98%
    22:00 +14°C° 0.1 mm 2 mps 732 mmHg 98%
    23:00 +14°C° 0.1 mm 2 mps 733 mmHg 99%

    Day after tomorrow, 19 July, Friday

    Time Temperature Precipitation Wind Pressure Humidity
    00:00 +14°C° 0.2 mm 2 mps 733 mmHg 99%
    01:00 +14°C° 0.2 mm 2 mps 732 mmHg 99%
    02:00 +14°C° 0.2 mm 1 mps 732 mmHg 99%
    03:00 +14°C° 0.4 mm 2 mps 732 mmHg 99%
    04:00 +14°C° 0.4 mm 2 mps 733 mmHg 99%
    05:00 +14°C° 0.4 mm 2 mps 733 mmHg 99%
    06:00 +14°C° 0.9 mm 2 mps 733 mmHg 98%
    07:00 +15°C° 0.9 mm 2 mps 733 mmHg 98%
    08:00 +14°C° 0.9 mm 3 mps 733 mmHg 98%
    09:00 +14°C° 0.7 mm 3 mps 733 mmHg 98%
    10:00 +14°C° 0.7 mm 3 mps 734 mmHg 97%
    11:00 +14°C° 0.7 mm 3 mps 734 mmHg 97%
    12:00 +14°C° 0.7 mm 4 mps 734 mmHg 96%
    13:00 +15°C° 0.7 mm 4 mps 734 mmHg 96%
    14:00 +15°C° 0.7 mm 4 mps 735 mmHg 95%
    15:00 +15°C° 0.2 mm 4 mps 735 mmHg 94%
    16:00 +15°C° 0.2 mm 4 mps 735 mmHg 93%
    17:00 +15°C° 0.2 mm 4 mps 735 mmHg 92%
    18:00 +15°C° 0 mm 4 mps 736 mmHg 93%
    19:00 +14°C° 0 mm 4 mps 736 mmHg 93%
    20:00 +14°C° 0 mm 3 mps 736 mmHg 94%
    21:00 +14°C° 0 mm 3 mps 736 mmHg 95%
    22:00 +13°C° 0 mm 3 mps 737 mmHg 96%
    23:00 +13°C° 0 mm 3 mps 737 mmHg 97%

    20 July, Saturday

    Time Temperature Precipitation Wind Pressure Humidity
    00:00 +13°C° 0 mm 3 mps 737 mmHg 97%
    01:00 +13°C° 0 mm 3 mps 737 mmHg 97%
    02:00 +13°C° 0 mm 3 mps 737 mmHg 97%
    03:00 +13°C° 0.1 mm 3 mps 738 mmHg 97%
    04:00 +13°C° 0.1 mm 3 mps 738 mmHg 97%
    05:00 +13°C° 0.1 mm 3 mps 738 mmHg 97%
    06:00 +13°C° 0 mm 3 mps 739 mmHg 96%
    07:00 +13°C° 0 mm 3 mps 739 mmHg 95%
    08:00 +14°C° 0 mm 3 mps 739 mmHg 94%
    09:00 +14°C° 0.3 mm 3 mps 739 mmHg 94%
    10:00 +14°C° 0.3 mm 3 mps 740 mmHg 95%
    11:00 +14°C° 0.3 mm 3 mps 740 mmHg 95%
    12:00 +16°C° 0.3 mm 3 mps 740 mmHg 91%
    13:00 +17°C° 0.3 mm 3 mps 740 mmHg 88%
    14:00 +18°C° 0.3 mm 3 mps 740 mmHg 85%
    15:00 +18°C° 0.4 mm 3 mps 741 mmHg 84%
    16:00 +19°C° 0.4 mm 3 mps 741 mmHg 84%
    17:00 +19°C° 0.4 mm 3 mps 741 mmHg 84%
    18:00 +18°C° 0.2 mm 2 mps 741 mmHg 88%
    19:00 +17°C° 0.2 mm 2 mps 741 mmHg 93%
    20:00 +16°C° 0.2 mm 2 mps 741 mmHg 97%
    21:00 +15°C° 0 mm 2 mps 741 mmHg 97%
    22:00 +15°C° 0 mm 2 mps 742 mmHg 98%
    23:00 +14°C° 0 mm 2 mps 742 mmHg 98%

    21 July, Sunday

    Time Temperature Precipitation Wind Pressure Humidity
    00:00 +14°C° 0 mm 2 mps 742 mmHg 98%
    01:00 +13°C° 0 mm 2 mps 742 mmHg 98%
    02:00 +13°C° 0 mm 2 mps 742 mmHg 99%
    03:00 +13°C° 0 mm 2 mps 743 mmHg 99%
    04:00 +14°C° 0 mm 2 mps 743 mmHg 99%
    05:00 +14°C° 0 mm 2 mps 743 mmHg 99%
    06:00 +15°C° 0 mm 2 mps 743 mmHg 98%
    07:00 +15°C° 0 mm 2 mps 743 mmHg 97%
    08:00 +16°C° 0 mm 2 mps 743 mmHg 96%
    09:00 +17°C° 0 mm 2 mps 743 mmHg 87%
    10:00 +20°C° 0 mm 1 mps 743 mmHg 79%
    11:00 +22°C° 0 mm 1 mps 743 mmHg 71%
    12:00 +21°C° 0.4 mm 2 mps 743 mmHg 72%
    13:00 +21°C° 0.4 mm 2 mps 743 mmHg 73%
    14:00 +23°C° 0.4 mm 2 mps 743 mmHg 74%
    15:00 +21°C° 0.6 mm 2 mps 743 mmHg 77%
    16:00 +21°C° 0.6 mm 2 mps 743 mmHg 80%
    17:00 +21°C° 0.6 mm 2 mps 743 mmHg 83%
    18:00 +20°C° 0.2 mm 2 mps 743 mmHg 87%
    19:00 +19°C° 0.2 mm 1 mps 743 mmHg 91%
    20:00 +18°C° 0.2 mm 1 mps 743 mmHg 95%
    21:00 +16°C° 0.1 mm 1 mps 743 mmHg 96%
    22:00 +16°C° 0.1 mm 1 mps 743 mmHg 96%
    23:00 +15°C° 0.1 mm 1 mps 743 mmHg 96%

    22 July, Monday

    Time Temperature Precipitation Wind Pressure Humidity
    00:00 +14°C° 0 mm 1 mps 743 mmHg 96%
    01:00 +14°C° 0 mm 1 mps 743 mmHg 96%
    02:00 +14°C° 0 mm 1 mps 743 mmHg 96%
    03:00 +14°C° 0 mm 1 mps 744 mmHg 96%
    04:00 +14°C° 0 mm 1 mps 744 mmHg 96%
    05:00 +14°C° 0 mm 1 mps 744 mmHg 96%
    06:00 +15°C° 0 mm 1 mps 744 mmHg 91%
    07:00 +18°C° 0 mm 1 mps 744 mmHg 86%
    08:00 +19°C° 0 mm 1 mps 744 mmHg 82%
    09:00 +20°C° 0 mm 2 mps 744 mmHg 72%
    10:00 +21°C° 0 mm 2 mps 744 mmHg 63%
    11:00 +24°C° 0 mm 2 mps 745 mmHg 54%
    12:00 +24°C° 0 mm 2 mps 745 mmHg 54%
    13:00 +25°C° 0 mm 2 mps 744 mmHg 53%
    14:00 +25°C° 0 mm 2 mps 744 mmHg 53%
    15:00 +25°C° 0.1 mm 2 mps 744 mmHg 56%
    16:00 +24°C° 0.1 mm 3 mps 744 mmHg 59%
    17:00 +24°C° 0.1 mm 3 mps 744 mmHg 62%
    18:00 +21°C° 0 mm 2 mps 744 mmHg 69%
    19:00 +20°C° 0 mm 2 mps 744 mmHg 76%
    20:00 +18°C° 0 mm 2 mps 744 mmHg 83%
    21:00 +17°C° 0 mm 2 mps 744 mmHg 84%
    22:00 +15°C° 0 mm 2 mps 744 mmHg 86%
    23:00 +14°C° 0 mm 2 mps 745 mmHg 88%
    Show more